Back to catalog

STARLINK-37865

AliveCommunicationsSSO
NORAD 69550·PAYLOAD·🇺🇸 United States

Launched Jun 15, 2026 from Vandenberg Space Force Base

Loading…

Next Passes (next 24 hours)

TLE

FreshSource: CelesTrak SupGP

Epoch: Sep 14, 2026, 21:17 UTC

1 69550C 26135E   26257.88729167  .00031228  00000+0  96969-3 0  2576
2 69550  97.2837 285.6105 0001310  89.6479  40.1730 15.33413174    16

Track STARLINK-37865 in real time with AllMySat

Download on the App Store